302  
ASUS41 KGYX 262010  
RWRGYX  
WEATHER ROUNDUP FOR MAINE AND NEW HAMPSHIRE  
NATIONAL WEATHER SERVICE GRAY ME  
400 PM EDT MON JUN 26 2017  
 
MEZ002-005-006-010-012-015-018-020-021-024-026-027-029-262100-  
MAINE  
 
CITY SKY/WX TMP DP RH WIND PRES REMARKS
 
PORTLAND PTSUNNY 75 47 36 W8 29.92F  
SANFORD MOSUNNY 76 49 38 SW13 29.93F  
BAR HARBOR MOSUNNY 74 50 42 VRB6 29.89F  
WISCASSET CLOUDY 72 51 47 VRB3 29.94S  
ROCKLAND MOSUNNY 72 50 45 W17G23 29.91S  
FRYEBURG CLOUDY 73 50 44 SW6 29.94F  
LEWISTONAUBURN MOSUNNY 72 50 45 NW9 29.93S  
AUGUSTA CLOUDY 69 48 47 SW10 29.93S  
WATERVILLE CLOUDY 72 49 44 W8 29.89S  
BANGOR PTSUNNY 71 50 47 W8 29.90R  
GREENVILLE N/A 67 45 45 VRB7 29.90R  
MILLINOCKET PTSUNNY 69 46 43 VRB6 29.89S  
HOULTON MOSUNNY 70 46 42 W14G20 29.86R  
PRESQUE ISLE PTSUNNY 67 44 43 W5 29.88S  
FRENCHVILLE PTSUNNY 63 40 42 W12 29.86S  
CARIBOU CLOUDY 67 44 43 VRB7 29.86R  

 
 
NHZ002-005-008-009-011-012-014-262100-  
NEW HAMPSHIRE  
 
CITY SKY/WX TMP DP RH WIND PRES REMARKS
 
PORTSMOUTH MOSUNNY 76 48 37 SW8 29.92F  
ROCHESTER PTSUNNY 76 49 38 CALM 29.92F  
NASHUA PTSUNNY 75 51 43 NW5 29.94F  
MANCHESTER MOSUNNY 77 47 34 VRB6 29.93F  
CONCORD PTSUNNY 76 49 38 W12G17 29.94S  
PLYMOUTH PTSUNNY 72 47 41 NW5 29.93F  
BERLIN CLOUDY 70 47 43 NW8 29.95F  
WHITEFIELD MOSUNNY 71 46 40 W8 29.95F  
JAFFREY CLOUDY 71 51 49 SW6 29.97S  
KEENE MOSUNNY 71 51 49 NE10 29.95F  
LEBANON PTSUNNY 73 47 39 NW7 29.94S  
MT WASHINGTON FOG 39 39 100 W29 N/A VSB 0  

 
 
VTZ005-007-008-262100-  
VERMONT  
 
CITY SKY/WX TMP DP RH WIND PRES REMARKS
 
ST JOHNSBURY N/A 71 47 42 MISG 29.92F  
MONTPELIER CLOUDY 65 48 54 W5 29.99S  
BURLINGTON PTSUNNY 71 44 37 SW7 29.94F  

 
 
MAZ007-012-024-CTZ003-RIZ002-NYZ038-NYZ072-262100-  
SOUTHERN NEW ENGLAND AND NY  
 
CITY SKY/WX TMP DP RH WIND PRES REMARKS
 
BOSTON MOSUNNY 78 48 34 W14 29.93F  
WORCESTER N/A 72 47 40 W9 29.97F  
NANTUCKET SUNNY 69 61 75 SW14 30.00S  
PROVIDENCE MOSUNNY 75 56 51 SE8 29.95F  
HARTFORD PTSUNNY 75 49 39 SW9 29.95F  
ALBANY PTSUNNY 73 54 51 VRB3 29.96S  
NEW YORK CITY MOSUNNY 78 50 37 S15G26 29.98S  

 
 
ANZ081-ANZ082-ANZ150-NHZ014-MEZ023>029-262100-  
COASTAL MARINE OBSERVATIONS  
 
STATION/POSITION TIME TEMP WIND PRES WAVE
 
AIR SEA DIR/SP/G HT/PER  
(UTC) (F) (DEG/KT/KT) (MB) (FT/S)  
MATINICUS ROCK 1900 59 230/ 18/ 18 1013.0R  
ISLE OF SHOALS 1900 70 210/ 8/ 9 1013.6F  
JEFFREYS LEDGE 1906 60 N/A 2/ 8  
CASHES LEDGE BUO 1850 65 61 1014.0 2/ 4  
GEORGES BANK BUO 1850 58 56 1015.5 3/ 8  

 
   
............KEY...........
 
 
WCI - WIND CHILL  
TC - TEMPERATURE IN CELSIUS  
VSB - VISIBILITY
IN MILES  
HX - HEAT INDEX  
FAIR- INDICATES FEW OR NO CLOUDS BELOW 12,000 FT, WITH NO  
SIGNIFICANT WEATHER AND/OR S TO VISIBILITY.  
 
 
 
CLICK HERE TO GO TO PREVIOUS BULLETINS.

The Nexlab ME Page
The Nexlab NH Page Main Text Page